sat.trackr.live / text

‹ back to catalog

ONEWEB-0623

NORAD 55164 · 2023-004AA

PAYLOAD ACTIVE UNKNOWN

§ Identity

Operator
Country
UK
Launch date
2023-01-10
Launch site
AFETR
Launch vehicle
Mass (kg)
RCS (m²)

Purposes: comms

External: N2YO · Heavens-Above · Gunter

§ Orbital elements

Epoch: 2026-05-25T00:13:39.813312Z

Period
109.29 min
Inclination
87.9150°
Eccentricity
0.0002522
Mean motion
13.17649027 rev/d
Perigee alt
1,191.8 km
Apogee alt
1,195.6 km
Semi-major
7,571.9 km
B*
-5.2757e-4
RAAN
10.4889°
Arg perigee
93.0992°
Mean anomaly
267.0428°
Rev number
16,453

§ Raw data

ONEWEB-06231 55164U 23004AA  26145.00948858 -.00000192  00000+0 -52757-3 0  99922 55164  87.9150  10.4889 0002522  93.0992 267.0428 13.17649027164534

JSON: /api/v1/satellites/55164 · /tle

For live sub-satellite position, see the globe view (requires WebGL).

§ Visibility from observer

Set your observer location to see the next 7 days of passes ≥ 10°. The values pass through the URL so the page stays shareable.

No JS? Fill the form by hand. The geolocation button needs JavaScript.